Year,Month,Day,Hour,Minute,Value (Times are PST for insolation in W/m^2)
2017,12,02,00,00,0.00
2017,12,02,00,01,0.00
2017,12,02,00,02,0.00
2017,12,02,00,03,0.00
2017,12,02,00,04,0.00
2017,12,02,00,05,0.00
2017,12,02,00,06,0.00
2017,12,02,00,07,0.00
2017,12,02,00,08,0.00
2017,12,02,00,09,0.00
2017,12,02,00,10,0.00
2017,12,02,00,11,0.00
2017,12,02,00,12,0.00
2017,12,02,00,13,0.00
2017,12,02,00,14,0.00
2017,12,02,00,15,0.00
2017,12,02,00,16,0.00
2017,12,02,00,17,0.00
2017,12,02,00,18,0.00
2017,12,02,00,19,0.00
2017,12,02,00,20,0.00
2017,12,02,00,21,0.00
2017,12,02,00,22,0.00
2017,12,02,00,23,0.00
2017,12,02,00,24,0.00
2017,12,02,00,25,0.00
2017,12,02,00,26,0.00
2017,12,02,00,27,0.00
2017,12,02,00,28,0.00
2017,12,02,00,29,0.00
2017,12,02,00,30,0.00
2017,12,02,00,31,0.00
2017,12,02,00,32,0.00
2017,12,02,00,33,0.00
2017,12,02,00,34,0.00
2017,12,02,00,35,0.00
2017,12,02,00,36,0.00
2017,12,02,00,37,0.00
2017,12,02,00,38,0.00
2017,12,02,00,39,0.00
2017,12,02,00,40,0.00
2017,12,02,00,41,0.00
2017,12,02,00,42,0.00
2017,12,02,00,43,0.00
2017,12,02,00,44,0.00
2017,12,02,00,45,0.00
2017,12,02,00,46,0.00
2017,12,02,00,47,0.00
2017,12,02,00,48,0.00
2017,12,02,00,49,0.00
2017,12,02,00,50,0.00
2017,12,02,00,51,0.00
2017,12,02,00,52,0.00
2017,12,02,00,53,0.00
2017,12,02,00,54,0.00
2017,12,02,00,55,0.00
2017,12,02,00,56,0.00
2017,12,02,00,57,0.00
2017,12,02,00,58,0.00
2017,12,02,00,59,0.00
2017,12,02,01,00,0.00
2017,12,02,01,01,0.00
2017,12,02,01,02,0.00
2017,12,02,01,03,0.00
2017,12,02,01,04,0.00
2017,12,02,01,05,0.00
2017,12,02,01,06,0.00
2017,12,02,01,07,0.00
2017,12,02,01,08,0.00
2017,12,02,01,09,0.00
2017,12,02,01,10,0.00
2017,12,02,01,11,0.00
2017,12,02,01,12,0.00
2017,12,02,01,13,0.00
2017,12,02,01,14,0.00
2017,12,02,01,15,0.00
2017,12,02,01,16,0.00
2017,12,02,01,17,0.00
2017,12,02,01,18,0.00
2017,12,02,01,19,0.00
2017,12,02,01,20,0.00
2017,12,02,01,21,0.00
2017,12,02,01,22,0.00
2017,12,02,01,23,0.00
2017,12,02,01,24,0.00
2017,12,02,01,25,0.00
2017,12,02,01,26,0.00
2017,12,02,01,27,0.00
2017,12,02,01,28,0.00
2017,12,02,01,29,0.00
2017,12,02,01,30,0.00
2017,12,02,01,31,0.00
2017,12,02,01,32,0.00
2017,12,02,01,33,0.00
2017,12,02,01,34,0.00
2017,12,02,01,35,0.00
2017,12,02,01,36,0.00
2017,12,02,01,37,0.00
2017,12,02,01,38,0.00
2017,12,02,01,39,0.00
2017,12,02,01,40,0.00
2017,12,02,01,41,0.00
2017,12,02,01,42,0.00
2017,12,02,01,43,0.00
2017,12,02,01,44,0.00
2017,12,02,01,45,0.00
2017,12,02,01,46,0.00
2017,12,02,01,47,0.00
2017,12,02,01,48,0.00
2017,12,02,01,49,0.00
2017,12,02,01,50,0.00
2017,12,02,01,51,0.00
2017,12,02,01,52,0.00
2017,12,02,01,53,0.00
2017,12,02,01,54,0.00
2017,12,02,01,55,0.00
2017,12,02,01,56,0.00
2017,12,02,01,57,0.00
2017,12,02,01,58,0.00
2017,12,02,01,59,0.00
2017,12,02,02,00,0.00
2017,12,02,02,01,0.00
2017,12,02,02,02,0.00
2017,12,02,02,03,0.00
2017,12,02,02,04,0.00
2017,12,02,02,05,0.00
2017,12,02,02,06,0.00
2017,12,02,02,07,0.00
2017,12,02,02,08,0.00
2017,12,02,02,09,0.00
2017,12,02,02,10,0.00
2017,12,02,02,11,0.00
2017,12,02,02,12,0.00
2017,12,02,02,13,0.00
2017,12,02,02,14,0.00
2017,12,02,02,15,0.00
2017,12,02,02,16,0.00
2017,12,02,02,17,0.00
2017,12,02,02,18,0.00
2017,12,02,02,19,0.00
2017,12,02,02,20,0.00
2017,12,02,02,21,0.00
2017,12,02,02,22,0.00
2017,12,02,02,23,0.00
2017,12,02,02,24,0.00
2017,12,02,02,25,0.00
2017,12,02,02,26,0.00
2017,12,02,02,27,0.00
2017,12,02,02,28,0.00
2017,12,02,02,29,0.00
2017,12,02,02,30,0.00
2017,12,02,02,31,0.00
2017,12,02,02,32,0.00
2017,12,02,02,33,0.00
2017,12,02,02,34,0.00
2017,12,02,02,35,0.00
2017,12,02,02,36,0.00
2017,12,02,02,37,0.00
2017,12,02,02,38,0.00
2017,12,02,02,39,0.00
2017,12,02,02,40,0.00
2017,12,02,02,41,0.00
2017,12,02,02,42,0.00
2017,12,02,02,43,0.00
2017,12,02,02,44,0.00
2017,12,02,02,45,0.00
2017,12,02,02,46,0.00
2017,12,02,02,47,0.00
2017,12,02,02,48,0.00
2017,12,02,02,49,0.00
2017,12,02,02,50,0.00
2017,12,02,02,51,0.00
2017,12,02,02,52,0.00
2017,12,02,02,53,0.00
2017,12,02,02,54,0.00
2017,12,02,02,55,0.00
2017,12,02,02,56,0.00
2017,12,02,02,57,0.00
2017,12,02,02,58,0.00
2017,12,02,02,59,0.00
2017,12,02,03,00,0.00
2017,12,02,03,01,0.00
2017,12,02,03,02,0.00
2017,12,02,03,03,0.00
2017,12,02,03,04,0.00
2017,12,02,03,05,0.00
2017,12,02,03,06,0.00
2017,12,02,03,07,0.00
2017,12,02,03,08,0.00
2017,12,02,03,09,0.00
2017,12,02,03,10,0.00
2017,12,02,03,11,0.00
2017,12,02,03,12,0.00
2017,12,02,03,13,0.00
2017,12,02,03,14,0.00
2017,12,02,03,15,0.00
2017,12,02,03,16,0.00
2017,12,02,03,17,0.00
2017,12,02,03,18,0.00
2017,12,02,03,19,0.00
2017,12,02,03,20,0.00
2017,12,02,03,21,0.00
2017,12,02,03,22,0.00
2017,12,02,03,23,0.00
2017,12,02,03,24,0.00
2017,12,02,03,25,0.00
2017,12,02,03,26,0.00
2017,12,02,03,27,0.00
2017,12,02,03,28,0.00
2017,12,02,03,29,0.00
2017,12,02,03,30,0.00
2017,12,02,03,31,0.00
2017,12,02,03,32,0.00
2017,12,02,03,33,0.00
2017,12,02,03,34,0.00
2017,12,02,03,35,0.00
2017,12,02,03,36,0.00
2017,12,02,03,37,0.00
2017,12,02,03,38,0.00
2017,12,02,03,39,0.00
2017,12,02,03,40,0.00
2017,12,02,03,41,0.00
2017,12,02,03,42,0.00
2017,12,02,03,43,0.00
2017,12,02,03,44,0.00
2017,12,02,03,45,0.00
2017,12,02,03,46,0.00
2017,12,02,03,47,0.00
2017,12,02,03,48,0.00
2017,12,02,03,49,0.00
2017,12,02,03,50,0.00
2017,12,02,03,51,0.00
2017,12,02,03,52,0.00
2017,12,02,03,53,0.00
2017,12,02,03,54,0.00
2017,12,02,03,55,0.00
2017,12,02,03,56,0.00
2017,12,02,03,57,0.00
2017,12,02,03,58,0.00
2017,12,02,03,59,0.00
2017,12,02,04,00,0.00
2017,12,02,04,01,0.00
2017,12,02,04,02,0.00
2017,12,02,04,03,0.00
2017,12,02,04,04,0.00
2017,12,02,04,05,0.00
2017,12,02,04,06,0.00
2017,12,02,04,07,0.00
2017,12,02,04,08,0.00
2017,12,02,04,09,0.00
2017,12,02,04,10,0.00
2017,12,02,04,11,0.00
2017,12,02,04,12,0.00
2017,12,02,04,13,0.00
2017,12,02,04,14,0.00
2017,12,02,04,15,0.00
2017,12,02,04,16,0.00
2017,12,02,04,17,0.00
2017,12,02,04,18,0.00
2017,12,02,04,19,0.00
2017,12,02,04,20,0.00
2017,12,02,04,21,0.00
2017,12,02,04,22,0.00
2017,12,02,04,23,0.00
2017,12,02,04,24,0.00
2017,12,02,04,25,0.00
2017,12,02,04,26,0.00
2017,12,02,04,27,0.00
2017,12,02,04,28,0.00
2017,12,02,04,29,0.00
2017,12,02,04,30,0.00
2017,12,02,04,31,0.00
2017,12,02,04,32,0.00
2017,12,02,04,33,0.00
2017,12,02,04,34,0.00
2017,12,02,04,35,0.00
2017,12,02,04,36,0.00
2017,12,02,04,37,0.00
2017,12,02,04,38,0.00
2017,12,02,04,39,0.00
2017,12,02,04,40,0.00
2017,12,02,04,41,0.00
2017,12,02,04,42,0.00
2017,12,02,04,43,0.00
2017,12,02,04,44,0.00
2017,12,02,04,45,0.00
2017,12,02,04,46,0.00
2017,12,02,04,47,0.00
2017,12,02,04,48,0.00
2017,12,02,04,49,0.00
2017,12,02,04,50,0.00
2017,12,02,04,51,0.00
2017,12,02,04,52,0.00
2017,12,02,04,53,0.00
2017,12,02,04,54,0.00
2017,12,02,04,55,0.00
2017,12,02,04,56,0.00
2017,12,02,04,57,0.00
2017,12,02,04,58,0.00
2017,12,02,04,59,0.00
2017,12,02,05,00,0.00
2017,12,02,05,01,0.00
2017,12,02,05,02,0.00
2017,12,02,05,03,0.00
2017,12,02,05,04,0.00
2017,12,02,05,05,0.00
2017,12,02,05,06,0.00
2017,12,02,05,07,0.00
2017,12,02,05,08,0.00
2017,12,02,05,09,0.00
2017,12,02,05,10,0.00
2017,12,02,05,11,0.00
2017,12,02,05,12,0.00
2017,12,02,05,13,0.00
2017,12,02,05,14,0.00
2017,12,02,05,15,0.00
2017,12,02,05,16,0.00
2017,12,02,05,17,0.00
2017,12,02,05,18,0.00
2017,12,02,05,19,0.00
2017,12,02,05,20,0.00
2017,12,02,05,21,0.00
2017,12,02,05,22,0.00
2017,12,02,05,23,0.00
2017,12,02,05,24,0.00
2017,12,02,05,25,0.00
2017,12,02,05,26,0.00
2017,12,02,05,27,0.00
2017,12,02,05,28,0.00
2017,12,02,05,29,0.00
2017,12,02,05,30,0.00
2017,12,02,05,31,0.00
2017,12,02,05,32,0.00
2017,12,02,05,33,0.00
2017,12,02,05,34,0.00
2017,12,02,05,35,0.00
2017,12,02,05,36,0.00
2017,12,02,05,37,0.00
2017,12,02,05,38,0.00
2017,12,02,05,39,0.00
2017,12,02,05,40,0.00
2017,12,02,05,41,0.00
2017,12,02,05,42,0.00
2017,12,02,05,43,0.00
2017,12,02,05,44,0.00
2017,12,02,05,45,0.00
2017,12,02,05,46,0.00
2017,12,02,05,47,0.00
2017,12,02,05,48,0.00
2017,12,02,05,49,0.00
2017,12,02,05,50,0.00
2017,12,02,05,51,0.00
2017,12,02,05,52,0.00
2017,12,02,05,53,0.00
2017,12,02,05,54,0.00
2017,12,02,05,55,0.00
2017,12,02,05,56,0.00
2017,12,02,05,57,0.00
2017,12,02,05,58,0.00
2017,12,02,05,59,0.00
2017,12,02,06,00,0.00
2017,12,02,06,01,0.00
2017,12,02,06,02,0.00
2017,12,02,06,03,0.00
2017,12,02,06,04,0.00
2017,12,02,06,05,0.00
2017,12,02,06,06,0.00
2017,12,02,06,07,0.00
2017,12,02,06,08,0.00
2017,12,02,06,09,0.00
2017,12,02,06,10,0.00
2017,12,02,06,11,0.00
2017,12,02,06,12,0.00
2017,12,02,06,13,0.00
2017,12,02,06,14,0.00
2017,12,02,06,15,0.00
2017,12,02,06,16,0.00
2017,12,02,06,17,0.00
2017,12,02,06,18,0.00
2017,12,02,06,19,0.00
2017,12,02,06,20,0.00
2017,12,02,06,21,0.00
2017,12,02,06,22,0.00
2017,12,02,06,23,0.00
2017,12,02,06,24,0.00
2017,12,02,06,25,0.00
2017,12,02,06,26,0.00
2017,12,02,06,27,0.00
2017,12,02,06,28,0.00
2017,12,02,06,29,0.00
2017,12,02,06,30,0.00
2017,12,02,06,31,0.00
2017,12,02,06,32,0.00
2017,12,02,06,33,0.00
2017,12,02,06,34,0.00
2017,12,02,06,35,0.00
2017,12,02,06,36,0.00
2017,12,02,06,37,0.00
2017,12,02,06,38,0.00
2017,12,02,06,39,0.00
2017,12,02,06,40,0.00
2017,12,02,06,41,0.00
2017,12,02,06,42,0.00
2017,12,02,06,43,0.00
2017,12,02,06,44,0.00
2017,12,02,06,45,0.00
2017,12,02,06,46,0.00
2017,12,02,06,47,0.00
2017,12,02,06,48,0.00
2017,12,02,06,49,0.00
2017,12,02,06,50,0.00
2017,12,02,06,51,0.00
2017,12,02,06,52,0.00
2017,12,02,06,53,0.00
2017,12,02,06,54,0.00
2017,12,02,06,55,0.00
2017,12,02,06,56,0.00
2017,12,02,06,57,0.00
2017,12,02,06,58,0.00
2017,12,02,06,59,0.00
2017,12,02,07,00,0.00
2017,12,02,07,01,0.00
2017,12,02,07,02,0.00
2017,12,02,07,03,0.00
2017,12,02,07,04,0.00
2017,12,02,07,05,0.00
2017,12,02,07,06,0.00
2017,12,02,07,07,0.00
2017,12,02,07,08,0.00
2017,12,02,07,09,0.00
2017,12,02,07,10,0.00
2017,12,02,07,11,0.00
2017,12,02,07,12,0.00
2017,12,02,07,13,0.00
2017,12,02,07,14,0.00
2017,12,02,07,15,0.00
2017,12,02,07,16,0.00
2017,12,02,07,17,0.00
2017,12,02,07,18,0.00
2017,12,02,07,19,0.00
2017,12,02,07,20,0.00
2017,12,02,07,21,0.00
2017,12,02,07,22,0.00
2017,12,02,07,23,0.00
2017,12,02,07,24,0.00
2017,12,02,07,25,0.00
2017,12,02,07,26,0.00
2017,12,02,07,27,0.00
2017,12,02,07,28,0.00
2017,12,02,07,29,0.00
2017,12,02,07,30,0.00
2017,12,02,07,31,0.00
2017,12,02,07,32,0.00
2017,12,02,07,33,0.00
2017,12,02,07,34,0.00
2017,12,02,07,35,0.00
2017,12,02,07,36,0.00
2017,12,02,07,37,0.00
2017,12,02,07,38,0.00
2017,12,02,07,39,0.00
2017,12,02,07,40,0.00
2017,12,02,07,41,0.00
2017,12,02,07,42,0.00
2017,12,02,07,43,0.00
2017,12,02,07,44,0.00
2017,12,02,07,45,0.00
2017,12,02,07,46,0.00
2017,12,02,07,47,0.00
2017,12,02,07,48,0.00
2017,12,02,07,49,0.00
2017,12,02,07,50,0.00
2017,12,02,07,51,0.00
2017,12,02,07,52,0.00
2017,12,02,07,53,0.00
2017,12,02,07,54,0.00
2017,12,02,07,55,0.00
2017,12,02,07,56,0.00
2017,12,02,07,57,0.00
2017,12,02,07,58,0.00
2017,12,02,07,59,0.00
2017,12,02,08,00,0.00
2017,12,02,08,01,0.00
2017,12,02,08,02,0.00
2017,12,02,08,03,0.00
2017,12,02,08,04,0.00
2017,12,02,08,05,0.00
2017,12,02,08,06,0.00
2017,12,02,08,07,0.00
2017,12,02,08,08,0.00
2017,12,02,08,09,0.00
2017,12,02,08,10,0.00
2017,12,02,08,11,0.00
2017,12,02,08,12,0.00
2017,12,02,08,13,0.00
2017,12,02,08,14,0.00
2017,12,02,08,15,0.00
2017,12,02,08,16,0.00
2017,12,02,08,17,0.00
2017,12,02,08,18,0.00
2017,12,02,08,19,0.00
2017,12,02,08,20,0.00
2017,12,02,08,21,0.00
2017,12,02,08,22,0.00
2017,12,02,08,23,0.00
2017,12,02,08,24,0.00
2017,12,02,08,25,0.00
2017,12,02,08,26,0.00
2017,12,02,08,27,0.00
2017,12,02,08,28,0.00
2017,12,02,08,29,0.00
2017,12,02,08,30,0.00
2017,12,02,08,31,0.00
2017,12,02,08,32,0.00
2017,12,02,08,33,0.00
2017,12,02,08,34,0.00
2017,12,02,08,35,0.00
2017,12,02,08,36,0.00
2017,12,02,08,37,0.00
2017,12,02,08,38,0.00
2017,12,02,08,39,0.00
2017,12,02,08,40,0.00
2017,12,02,08,41,0.00
2017,12,02,08,42,0.00
2017,12,02,08,43,0.00
2017,12,02,08,44,0.00
2017,12,02,08,45,0.00
2017,12,02,08,46,0.00
2017,12,02,08,47,0.00
2017,12,02,08,48,0.00
2017,12,02,08,49,0.00
2017,12,02,08,50,0.00
2017,12,02,08,51,0.00
2017,12,02,08,52,0.00
2017,12,02,08,53,0.00
2017,12,02,08,54,0.00
2017,12,02,08,55,0.00
2017,12,02,08,56,0.00
2017,12,02,08,57,0.00
2017,12,02,08,58,2.00
2017,12,02,08,59,5.00
2017,12,02,09,00,5.00
2017,12,02,09,01,5.00
2017,12,02,09,02,5.00
2017,12,02,09,03,5.00
2017,12,02,09,04,5.00
2017,12,02,09,05,5.00
2017,12,02,09,06,6.80
2017,12,02,09,07,9.00
2017,12,02,09,08,9.00
2017,12,02,09,09,9.30
2017,12,02,09,10,11.20
2017,12,02,09,11,12.00
2017,12,02,09,12,12.00
2017,12,02,09,13,13.60
2017,12,02,09,14,17.00
2017,12,02,09,15,18.00
2017,12,02,09,16,18.60
2017,12,02,09,17,20.30
2017,12,02,09,18,21.00
2017,12,02,09,19,21.00
2017,12,02,09,20,28.60
2017,12,02,09,21,34.50
2017,12,02,09,22,38.80
2017,12,02,09,23,39.70
2017,12,02,09,24,46.00
2017,12,02,09,25,46.00
2017,12,02,09,26,44.20
2017,12,02,09,27,40.00
2017,12,02,09,28,40.00
2017,12,02,09,29,38.60
2017,12,02,09,30,38.00
2017,12,02,09,31,39.00
2017,12,02,09,32,39.00
2017,12,02,09,33,39.00
2017,12,02,09,34,41.40
2017,12,02,09,35,40.30
2017,12,02,09,36,40.00
2017,12,02,09,37,39.00
2017,12,02,09,38,39.00
2017,12,02,09,39,38.70
2017,12,02,09,40,37.00
2017,12,02,09,41,37.00
2017,12,02,09,42,37.00
2017,12,02,09,43,35.00
2017,12,02,09,44,32.00
2017,12,02,09,45,32.00
2017,12,02,09,46,32.00
2017,12,02,09,47,32.00
2017,12,02,09,48,32.00
2017,12,02,09,49,32.00
2017,12,02,09,50,32.80
2017,12,02,09,51,33.00
2017,12,02,09,52,33.00
2017,12,02,09,53,33.00
2017,12,02,09,54,33.00
2017,12,02,09,55,33.00
2017,12,02,09,56,34.80
2017,12,02,09,57,40.00
2017,12,02,09,58,43.60
2017,12,02,09,59,47.30
2017,12,02,10,00,49.00
2017,12,02,10,01,54.40
2017,12,02,10,02,60.70
2017,12,02,10,03,65.50
2017,12,02,10,04,72.60
2017,12,02,10,05,74.00
2017,12,02,10,06,74.00
2017,12,02,10,07,74.90
2017,12,02,10,08,91.40
2017,12,02,10,09,95.00
2017,12,02,10,10,95.00
2017,12,02,10,11,91.00
2017,12,02,10,12,79.00
2017,12,02,10,13,79.00
2017,12,02,10,14,73.60
2017,12,02,10,15,67.00
2017,12,02,10,16,67.00
2017,12,02,10,17,67.00
2017,12,02,10,18,67.00
2017,12,02,10,19,67.00
2017,12,02,10,20,67.00
2017,12,02,10,21,67.00
2017,12,02,10,22,48.20
2017,12,02,10,23,51.00
2017,12,02,10,24,53.20
2017,12,02,10,25,65.00
2017,12,02,10,26,67.70
2017,12,02,10,27,72.20
2017,12,02,10,28,69.00
2017,12,02,10,29,67.00
2017,12,02,10,30,65.00
2017,12,02,10,31,67.40
2017,12,02,10,32,69.00
2017,12,02,10,33,78.80
2017,12,02,10,34,83.80
2017,12,02,10,35,83.20
2017,12,02,10,36,83.00
2017,12,02,10,37,83.00
2017,12,02,10,38,84.40
2017,12,02,10,39,88.00
2017,12,02,10,40,88.00
2017,12,02,10,41,90.70
2017,12,02,10,42,97.30
2017,12,02,10,43,98.00
2017,12,02,10,44,97.50
2017,12,02,10,45,97.00
2017,12,02,10,46,97.00
2017,12,02,10,47,97.00
2017,12,02,10,48,97.00
2017,12,02,10,49,99.40
2017,12,02,10,50,101.70
2017,12,02,10,51,100.20
2017,12,02,10,52,100.00
2017,12,02,10,53,100.00
2017,12,02,10,54,100.00
2017,12,02,10,55,101.00
2017,12,02,10,56,104.80
2017,12,02,10,57,107.80
2017,12,02,10,58,109.00
2017,12,02,10,59,109.90
2017,12,02,11,00,111.00
2017,12,02,11,01,111.00
2017,12,02,11,02,114.20
2017,12,02,11,03,116.00
2017,12,02,11,04,116.00
2017,12,02,11,05,116.00
2017,12,02,11,06,122.30
2017,12,02,11,07,123.00
2017,12,02,11,08,123.00
2017,12,02,11,09,122.40
2017,12,02,11,10,120.00
2017,12,02,11,11,120.00
2017,12,02,11,12,120.00
2017,12,02,11,13,120.00
2017,12,02,11,14,121.50
2017,12,02,11,15,123.00
2017,12,02,11,16,123.00
2017,12,02,11,17,125.60
2017,12,02,11,18,127.00
2017,12,02,11,19,127.80
2017,12,02,11,20,129.70
2017,12,02,11,21,131.80
2017,12,02,11,22,134.10
2017,12,02,11,23,135.00
2017,12,02,11,24,135.80
2017,12,02,11,25,139.80
2017,12,02,11,26,142.60
2017,12,02,11,27,144.00
2017,12,02,11,28,144.00
2017,12,02,11,29,151.20
2017,12,02,11,30,161.10
2017,12,02,11,31,163.70
2017,12,02,11,32,170.90
2017,12,02,11,33,168.80
2017,12,02,11,34,168.60
2017,12,02,11,35,169.00
2017,12,02,11,36,169.00
2017,12,02,11,37,402.80
2017,12,02,11,38,362.00
2017,12,02,11,39,372.80
2017,12,02,11,40,439.20
2017,12,02,11,41,455.00
2017,12,02,11,42,455.00
2017,12,02,11,43,455.00
2017,12,02,11,44,476.00
2017,12,02,11,45,502.80
2017,12,02,11,46,505.00
2017,12,02,11,47,503.00
2017,12,02,11,48,503.00
2017,12,02,11,49,503.00
2017,12,02,11,50,230.20
2017,12,02,11,51,231.20
2017,12,02,11,52,161.90
2017,12,02,11,53,157.50
2017,12,02,11,54,167.70
2017,12,02,11,55,244.00
2017,12,02,11,56,223.00
2017,12,02,11,57,217.10
2017,12,02,11,58,206.40
2017,12,02,11,59,207.00
2017,12,02,12,00,207.00
2017,12,02,12,01,207.00
2017,12,02,12,02,207.00
2017,12,02,12,03,181.80
2017,12,02,12,04,171.00
2017,12,02,12,05,171.00
2017,12,02,12,06,171.00
2017,12,02,12,07,171.00
2017,12,02,12,08,163.30
2017,12,02,12,09,97.00
2017,12,02,12,10,91.00
2017,12,02,12,11,83.00
2017,12,02,12,12,83.00
2017,12,02,12,13,70.20
2017,12,02,12,14,51.00
2017,12,02,12,15,47.20
2017,12,02,12,16,44.00
2017,12,02,12,17,41.40
2017,12,02,12,18,40.00
2017,12,02,12,19,40.00
2017,12,02,12,20,40.00
2017,12,02,12,21,40.00
2017,12,02,12,22,37.20
2017,12,02,12,23,37.00
2017,12,02,12,24,37.00
2017,12,02,12,25,37.00
2017,12,02,12,26,37.00
2017,12,02,12,27,37.70
2017,12,02,12,28,38.20
2017,12,02,12,29,37.00
2017,12,02,12,30,37.00
2017,12,02,12,31,37.00
2017,12,02,12,32,38.30
2017,12,02,12,33,39.00
2017,12,02,12,34,39.00
2017,12,02,12,35,39.80
2017,12,02,12,36,40.00
2017,12,02,12,37,40.00
2017,12,02,12,38,39.20
2017,12,02,12,39,32.00
2017,12,02,12,40,32.00
2017,12,02,12,41,32.00
2017,12,02,12,42,33.50
2017,12,02,12,43,37.00
2017,12,02,12,44,37.00
2017,12,02,12,45,45.80
2017,12,02,12,46,57.20
2017,12,02,12,47,60.00
2017,12,02,12,48,60.00
2017,12,02,12,49,60.00
2017,12,02,12,50,74.30
2017,12,02,12,51,77.00
2017,12,02,12,52,78.90
2017,12,02,12,53,79.00
2017,12,02,12,54,79.60
2017,12,02,12,55,83.80
2017,12,02,12,56,86.00
2017,12,02,12,57,86.00
2017,12,02,12,58,85.20
2017,12,02,12,59,82.50
2017,12,02,13,00,81.00
2017,12,02,13,01,79.80
2017,12,02,13,02,79.00
2017,12,02,13,03,79.00
2017,12,02,13,04,79.00
2017,12,02,13,05,74.80
2017,12,02,13,06,74.00
2017,12,02,13,07,74.10
2017,12,02,13,08,76.10
2017,12,02,13,09,77.30
2017,12,02,13,10,80.20
2017,12,02,13,11,84.00
2017,12,02,13,12,88.90
2017,12,02,13,13,102.10
2017,12,02,13,14,113.90
2017,12,02,13,15,126.00
2017,12,02,13,16,138.00
2017,12,02,13,17,149.10
2017,12,02,13,18,158.00
2017,12,02,13,19,164.00
2017,12,02,13,20,168.40
2017,12,02,13,21,170.80
2017,12,02,13,22,171.20
2017,12,02,13,23,176.00
2017,12,02,13,24,175.70
2017,12,02,13,25,173.50
2017,12,02,13,26,171.70
2017,12,02,13,27,170.30
2017,12,02,13,28,168.20
2017,12,02,13,29,165.20
2017,12,02,13,30,162.50
2017,12,02,13,31,162.00
2017,12,02,13,32,160.70
2017,12,02,13,33,160.00
2017,12,02,13,34,158.40
2017,12,02,13,35,158.00
2017,12,02,13,36,156.20
2017,12,02,13,37,155.90
2017,12,02,13,38,152.60
2017,12,02,13,39,148.90
2017,12,02,13,40,147.00
2017,12,02,13,41,144.00
2017,12,02,13,42,140.50
2017,12,02,13,43,132.40
2017,12,02,13,44,128.60
2017,12,02,13,45,123.70
2017,12,02,13,46,121.00
2017,12,02,13,47,119.20
2017,12,02,13,48,118.00
2017,12,02,13,49,116.40
2017,12,02,13,50,113.50
2017,12,02,13,51,111.30
2017,12,02,13,52,109.00
2017,12,02,13,53,106.90
2017,12,02,13,54,104.80
2017,12,02,13,55,103.20
2017,12,02,13,56,100.00
2017,12,02,13,57,96.80
2017,12,02,13,58,89.00
2017,12,02,13,59,84.70
2017,12,02,14,00,81.90
2017,12,02,14,01,78.60
2017,12,02,14,02,75.10
2017,12,02,14,03,71.20
2017,12,02,14,04,69.20
2017,12,02,14,05,69.00
2017,12,02,14,06,65.40
2017,12,02,14,07,63.10
2017,12,02,14,08,63.00
2017,12,02,14,09,61.70
2017,12,02,14,10,59.20
2017,12,02,14,11,55.40
2017,12,02,14,12,53.70
2017,12,02,14,13,53.00
2017,12,02,14,14,52.10
2017,12,02,14,15,51.00
2017,12,02,14,16,48.80
2017,12,02,14,17,46.30
2017,12,02,14,18,44.50
2017,12,02,14,19,42.50
2017,12,02,14,20,40.30
2017,12,02,14,21,39.10
2017,12,02,14,22,35.10
2017,12,02,14,23,32.90
2017,12,02,14,24,32.00
2017,12,02,14,25,31.60
2017,12,02,14,26,30.00
2017,12,02,14,27,30.00
2017,12,02,14,28,30.00
2017,12,02,14,29,30.00
2017,12,02,14,30,31.10
2017,12,02,14,31,32.00
2017,12,02,14,32,32.70
2017,12,02,14,33,32.30
2017,12,02,14,34,32.00
2017,12,02,14,35,32.80
2017,12,02,14,36,34.80
2017,12,02,14,37,35.00
2017,12,02,14,38,35.40
2017,12,02,14,39,39.20
2017,12,02,14,40,40.00
2017,12,02,14,41,40.60
2017,12,02,14,42,42.00
2017,12,02,14,43,42.00
2017,12,02,14,44,41.10
2017,12,02,14,45,38.50
2017,12,02,14,46,37.00
2017,12,02,14,47,35.70
2017,12,02,14,48,33.60
2017,12,02,14,49,33.00
2017,12,02,14,50,33.00
2017,12,02,14,51,30.30
2017,12,02,14,52,27.90
2017,12,02,14,53,24.80
2017,12,02,14,54,23.00
2017,12,02,14,55,23.00
2017,12,02,14,56,23.60
2017,12,02,14,57,25.00
2017,12,02,14,58,25.40
2017,12,02,14,59,27.70
2017,12,02,15,00,31.10
2017,12,02,15,01,32.00
2017,12,02,15,02,32.00
2017,12,02,15,03,27.80
2017,12,02,15,04,23.60
2017,12,02,15,05,21.30
2017,12,02,15,06,21.00
2017,12,02,15,07,19.10
2017,12,02,15,08,18.90
2017,12,02,15,09,18.10
2017,12,02,15,10,19.00
2017,12,02,15,11,18.70
2017,12,02,15,12,18.00
2017,12,02,15,13,18.00
2017,12,02,15,14,18.00
2017,12,02,15,15,16.90
2017,12,02,15,16,14.80
2017,12,02,15,17,14.00
2017,12,02,15,18,15.40
2017,12,02,15,19,16.00
2017,12,02,15,20,16.00
2017,12,02,15,21,17.70
2017,12,02,15,22,16.00
2017,12,02,15,23,14.00
2017,12,02,15,24,14.00
2017,12,02,15,25,13.50
2017,12,02,15,26,12.00
2017,12,02,15,27,12.00
2017,12,02,15,28,11.60
2017,12,02,15,29,11.00
2017,12,02,15,30,11.60
2017,12,02,15,31,11.40
2017,12,02,15,32,11.60
2017,12,02,15,33,12.00
2017,12,02,15,34,12.00
2017,12,02,15,35,12.00
2017,12,02,15,36,13.80
2017,12,02,15,37,15.90
2017,12,02,15,38,18.00
2017,12,02,15,39,18.50
2017,12,02,15,40,16.60
2017,12,02,15,41,18.20
2017,12,02,15,42,16.00
2017,12,02,15,43,14.30
2017,12,02,15,44,12.00
2017,12,02,15,45,11.50
2017,12,02,15,46,11.00
2017,12,02,15,47,11.00
2017,12,02,15,48,9.50
2017,12,02,15,49,10.50
2017,12,02,15,50,11.00
2017,12,02,15,51,11.00
2017,12,02,15,52,9.10
2017,12,02,15,53,9.00
2017,12,02,15,54,8.70
2017,12,02,15,55,7.00
2017,12,02,15,56,7.00
2017,12,02,15,57,6.30
2017,12,02,15,58,5.00
2017,12,02,15,59,5.00
2017,12,02,16,00,5.00
2017,12,02,16,01,5.00
2017,12,02,16,02,5.00
2017,12,02,16,03,1.50
2017,12,02,16,04,3.80
2017,12,02,16,05,0.80
2017,12,02,16,06,4.50
2017,12,02,16,07,5.00
2017,12,02,16,08,5.00
2017,12,02,16,09,4.20
2017,12,02,16,10,0.00
2017,12,02,16,11,0.00
2017,12,02,16,12,0.00
2017,12,02,16,13,0.00
2017,12,02,16,14,0.00
2017,12,02,16,15,0.00
2017,12,02,16,16,0.00
2017,12,02,16,17,0.00
2017,12,02,16,18,0.00
2017,12,02,16,19,0.00
2017,12,02,16,20,0.00
2017,12,02,16,21,0.00
2017,12,02,16,22,0.00
2017,12,02,16,23,0.00
2017,12,02,16,24,0.00
2017,12,02,16,25,0.00
2017,12,02,16,26,0.00
2017,12,02,16,27,0.00
2017,12,02,16,28,0.00
2017,12,02,16,29,0.00
2017,12,02,16,30,0.00
2017,12,02,16,31,0.00
2017,12,02,16,32,0.00
2017,12,02,16,33,0.00
2017,12,02,16,34,0.00
2017,12,02,16,35,0.00
2017,12,02,16,36,0.00
2017,12,02,16,37,0.00
2017,12,02,16,38,0.00
2017,12,02,16,39,0.00
2017,12,02,16,40,0.00
2017,12,02,16,41,0.00
2017,12,02,16,42,0.00
2017,12,02,16,43,0.00
2017,12,02,16,44,0.00
2017,12,02,16,45,0.00
2017,12,02,16,46,0.00
2017,12,02,16,47,0.00
2017,12,02,16,48,0.00
2017,12,02,16,49,0.00
2017,12,02,16,50,0.00
2017,12,02,16,51,0.00
2017,12,02,16,52,0.00
2017,12,02,16,53,0.00
2017,12,02,16,54,0.00
2017,12,02,16,55,0.00
2017,12,02,16,56,0.00
2017,12,02,16,57,0.00
2017,12,02,16,58,0.00
2017,12,02,16,59,0.00
2017,12,02,17,00,0.00
2017,12,02,17,01,0.00
2017,12,02,17,02,0.00
2017,12,02,17,03,0.00
2017,12,02,17,04,0.00
2017,12,02,17,05,0.00
2017,12,02,17,06,0.00
2017,12,02,17,07,0.00
2017,12,02,17,08,0.00
2017,12,02,17,09,0.00
2017,12,02,17,10,0.00
2017,12,02,17,11,0.00
2017,12,02,17,12,0.00
2017,12,02,17,13,0.00
2017,12,02,17,14,0.00
2017,12,02,17,15,0.00
2017,12,02,17,16,0.00
2017,12,02,17,17,0.00
2017,12,02,17,18,0.00
2017,12,02,17,19,0.00
2017,12,02,17,20,0.00
2017,12,02,17,21,0.00
2017,12,02,17,22,0.00
2017,12,02,17,23,0.00
2017,12,02,17,24,0.00
2017,12,02,17,25,0.00
2017,12,02,17,26,0.00
2017,12,02,17,27,0.00
2017,12,02,17,28,0.00
2017,12,02,17,29,0.00
2017,12,02,17,30,0.00
2017,12,02,17,31,0.00
2017,12,02,17,32,0.00
2017,12,02,17,33,0.00
2017,12,02,17,34,0.00
2017,12,02,17,35,0.00
2017,12,02,17,36,0.00
2017,12,02,17,37,0.00
2017,12,02,17,38,0.00
2017,12,02,17,39,0.00
2017,12,02,17,40,0.00
2017,12,02,17,41,0.00
2017,12,02,17,42,0.00